logo
Rechercher aéroport 
image banner adimage banner adimage banner ad
image banner ad

55CN - Sunset-Glendale

Situé à Los Angeles, United States

ICAO - 55CN, IATA -

Données fournies par Airmate  

Information générale

Coordonnées: N34°4'40" W118°15'40"
Élévation : 556 feet MSL.
Variation magnétique : 14° East
Voir autres Aéroports à California

Données opérationnelles

Special qualification required
Heure actuelle UTC:
Heure actuelle locale:
Météo à : KBUR - Bob Hope ( 16 km )
METAR: KBUR 281253Z 00000KT 10SM CLR 23/12 A2991 RMK AO2 SLP112 T02330122
TAF: KBUR 281148Z 2812/2912 VRB03KT P6SM SKC FM282000 17008KT P6SM SKC FM290400 12006KT P6SM SKC FM290800 VRB03KT P6SM SKC
Voir NOTAMs / SUP AIP / TFR affectant cet aéroport [VIEW]
Fréquences de communication: [VIEW]

Pistes:

Coordonnées de l'aéroport

Adresse: Los Angeles United States

Vue satellite de 55CN